Weather History for Little Rock AFB, AR

Change the Weather History Date:

Wednesday, November 7, 2012

  Actual Average Record
Temperature  
Mean Temperature 50 °F -  
Max Temperature 64 °F 63 °F 86 °F (1999)
Min Temperature 36 °F 41 °F 14 °F (1993)
Degree Days  
Heating Degree Days 14    
Moisture  
Dew Point 36 °F    
Average Humidity 65    
Maximum Humidity 91    
Minimum Humidity 28    
Precipitation  
Precipitation 0.00 in - - ()
Sea Level Pressure  
Sea Level Pressure 30.11 in    
Wind  
Wind Speed 6 mph (WNW)    
Max Wind Speed 14 mph    
Max Gust Speed 22 mph    
Visibility 10 miles    
Events      
Averages and records for this station are not official NWS values.
T = Trace of Precipitation, MM = Missing Value Source: NWS Daily Summary

Daily Weather History Graph

Daily Weather History Graph

Search for Another Location

Airport:

Trip Planner

Search our weather history database for the weather conditions in past years. The results will help you decide how hot, cold, wet, or windy it might be!

Date:

Astronomy

Nov. 07, 2012 Rise Set
Actual Time 6:35 AM CST 5:08 PM CST
Civil Twilight 6:09 AM CST 5:35 PM CST
Nautical Twilight 5:38 AM CST 6:05 PM CST
Astronomical Twilight 5:09 AM CST 6:34 PM CST
Moon No Moon Rise 1:03 PM CST (11/7)
Length of Visible Light 11h 25m
Length of Day
10h 32m
Last Quarter, 43% of the Moon is Illuminated
Nov 7
Last Quarter
Nov 13
New
Nov 20
First Quarter
Nov 28
Full
Dec 6
Last Quarter

Hourly Weather History & Observations

Time (CST) Temp. Windchill Dew Point Humidity Pressure Visibility Wind Dir Wind Speed Gust Speed Precip Events Conditions
12:55 AM 45.7 °F 43.4 °F 39.6 °F 79% 30.06 in 10.0 mi West 4.6 mph - N/A   Clear
1:55 AM 40.5 °F 37.3 °F 37.9 °F 91% 30.06 in 10.0 mi West 4.6 mph - N/A   Clear
2:55 AM 39.9 °F 35.8 °F 37.4 °F 91% 30.06 in 10.0 mi WSW 5.8 mph - N/A   Clear
3:55 AM 39.9 °F 35.1 °F 37.6 °F 91% 30.06 in 10.0 mi WSW 6.9 mph - N/A   Clear
4:55 AM 43.3 °F 39.9 °F 39.0 °F 85% 30.08 in 10.0 mi West 5.8 mph - N/A   Clear
5:55 AM 43.2 °F 39.0 °F 38.8 °F 85% 30.09 in 10.0 mi West 6.9 mph - N/A   Clear
6:55 AM 43.2 °F 39.0 °F 37.4 °F 80% 30.10 in 10.0 mi West 6.9 mph - N/A   Clear
7:55 AM 47.7 °F - 38.1 °F 70% 30.12 in 10.0 mi West 8.1 mph - N/A   Clear
8:55 AM 51.8 °F - 39.2 °F 62% 30.17 in 10.0 mi West 8.1 mph - N/A   Clear
9:55 AM 55.4 °F - 36.5 °F 49% 30.13 in 10.0 mi WNW 9.2 mph - N/A   Clear
10:55 AM 58.6 °F - 34.0 °F 40% 30.12 in 10.0 mi NW 12.7 mph 20.7 mph N/A   Clear
11:55 AM 60.4 °F - 32.4 °F 35% 30.10 in 10.0 mi NW 11.5 mph 20.7 mph N/A   Clear
12:55 PM 62.2 °F - 31.1 °F 31% 30.08 in 10.0 mi NNW 8.1 mph 21.9 mph N/A   Clear
1:55 PM 64.0 °F - 30.6 °F 28% 30.07 in 10.0 mi NW 12.7 mph 17.3 mph N/A   Clear
2:55 PM 63.9 °F - 30.4 °F 28% 30.07 in 10.0 mi NW 13.8 mph 20.7 mph N/A   Clear
3:55 PM 63.1 °F - 31.8 °F 31% 30.09 in 10.0 mi North 6.9 mph - N/A   Clear
4:55 PM 58.8 °F - 34.9 °F 41% 30.10 in 10.0 mi NE 5.8 mph - N/A   Clear
5:55 PM 51.8 °F - 35.8 °F 54% 30.12 in 10.0 mi ENE 5.8 mph - N/A   Clear
6:55 PM 46.0 °F - 36.9 °F 70% 30.14 in 10.0 mi Calm Calm - N/A   Clear
7:55 PM 44.2 °F - 36.9 °F 75% 30.16 in 10.0 mi Calm Calm - N/A   Clear
8:55 PM 41.0 °F - 35.8 °F 82% 30.18 in 10.0 mi Calm Calm - N/A   Clear
9:55 PM 39.2 °F - 35.2 °F 86% 30.18 in 10.0 mi Calm Calm - N/A   Clear
10:55 PM 37.2 °F - 34.3 °F 89% 30.19 in 10.0 mi Calm Calm - N/A   Clear
11:55 PM 36.0 °F - 33.3 °F 90% 30.20 in 10.0 mi Calm Calm - N/A   Clear